Location: Newark
(49.9833°N, 3.7472°E)
Time: 03:02:05
(UTC+00:00)

N. Korean satellite - Pass Details

Date: 24 September 2019
Orbit: 455 x 508 km, 97.2° (Epoch: 16 October)

Event Time Altitude Azimuth Distance (km) Brightness Sun altitude
Rises 04:49:33 0° 28° (NNE) 2,485 10.7 -7.9°
Reaches altitude 10° 04:52:10 10° 50° (NE) 1,604 10.2 -7.5°
Maximum altitude 04:54:27 17° 92° (E) 1,251 10.1 -7.1°
Drops below altitude 10° 04:56:43 10° 133° (SE) 1,599 9.8 -6.8°
Sets 04:59:19 0° 155° (SSE) 2,472 10.4 -6.4°
